CW4226 Weather Reports


Display with metric or nautical units.
time (UTC)temp
F
wind
direction
speed
MPH
gust
MPH
rain 1hr
in
rain 24hr
in
rain mn
in
humidity
%
barometer
mb
20260504070258 43 67 2.0 2.0 0.00 0.00 0.00 61 1008.1
20260504060218 49 61 1.0 2.0 0.00 0.00 0.00 46 1008.2
20260504050646 43 72 2.0 3.0 0.00 0.00 0.00 63 1008.3
20260504050143 42 66 2.0 3.0 0.00 0.00 0.00 62 1008.2
20260504045640 43 41 2.0 3.0 0.00 0.00 0.00 61 1008.2
20260504045140 44 68 2.0 3.0 0.00 0.00 0.00 60 1008.2
20260504044638 42 72 2.0 3.0 0.00 0.00 0.00 63 1008.2
20260504044555 43 116 0.0 3.0 0.00 0.00 0.00 64 1007.2
20260504044135 44 50 3.0 4.0 0.00 0.00 0.00 61 1008.2
20260504043632 43 69 3.0 3.0 0.00 0.00 0.00 58 1008.3
20260504043129 42 68 2.0 3.0 0.00 0.00 0.00 63 1008.3
20260504043055 43 74 1.0 2.0 0.00 0.00 0.00 63 1007.1
20260504042626 42 44 2.0 3.0 0.00 0.00 0.00 62 1008.0
20260504042123 42 55 2.0 3.0 0.00 0.00 0.00 63 1007.9
20260504041618 43 80 2.0 3.0 0.00 0.00 0.00 62 1008.0
20260504041115 43 35 1.0 3.0 0.00 0.00 0.00 60 1007.9
20260504040612 44 52 3.0 3.0 0.00 0.00 0.00 60 1007.8
20260504040109 43 54 2.0 3.0 0.00 0.00 0.00 61 1007.9
20260504040054 43 72 0.0 2.0 0.00 0.00 0.00 62 1007.0
20260504035606 43 70 1.0 3.0 0.00 0.00 0.00 61 1008.0
20260504035102 43 46 2.0 4.0 0.00 0.00 0.00 59 1007.8
20260504034600 43 48 2.0 3.0 0.00 0.00 0.00 60 1007.9
20260504034556 43 92 0.0 2.0 0.00 0.00 0.00 61 1007.0
20260504034057 43 63 2.0 4.0 0.00 0.00 0.00 60 1007.9
20260504033555 43 66 3.0 3.0 0.00 0.00 0.00 59 1008.0
20260504033052 42 64 2.0 3.0 0.00 0.00 0.00 60 1008.0
20260504032549 42 63 2.0 3.0 0.00 0.00 0.00 63 1007.9
20260504032045 41 69 2.0 3.0 0.00 0.00 0.00 66 1007.8
20260504031542 41 66 3.0 4.0 0.00 0.00 0.00 66 1007.8
20260504031038 41 46 3.0 4.0 0.00 0.00 0.00 67 1007.8
20260504030536 41 62 2.0 3.0 0.00 0.00 0.00 67 1007.9
20260504030054 42 53 0.0 2.0 0.00 0.00 0.00 66 1007.1
20260504030032 42 77 1.0 3.0 0.00 0.00 0.00 66 1007.9
20260504025530 42 58 2.0 3.0 0.00 0.00 0.00 65 1007.9
20260504025026 42 76 0.0 4.0 0.00 0.00 0.00 65 1007.8
20260504024523 42 77 2.0 3.0 0.00 0.00 0.00 65 1007.9
20260504024020 42 67 2.0 3.0 0.00 0.00 0.00 64 1007.8
20260504023517 42 42 3.0 3.0 0.00 0.00 0.00 65 1008.0
20260504023055 43 41 0.0 1.0 0.00 0.00 0.00 65 1007.1
20260504023012 42 66 2.0 2.0 0.00 0.00 0.00 66 1008.0
20260504022508 42 49 2.0 3.0 0.00 0.00 0.00 64 1007.8
20260504022005 43 45 2.0 3.0 0.00 0.00 0.00 64 1007.9
20260504021554 44 39 0.0 1.0 0.00 0.00 0.00 63 1007.0
20260504021503 43 56 2.0 3.0 0.00 0.00 0.00 64 1008.0
20260504020959 43 47 3.0 3.0 0.00 0.00 0.00 65 1007.8
20260504020456 43 64 2.0 3.0 0.00 0.00 0.00 63 1008.0
20260504020054 45 40 0.0 0.0 0.00 0.00 0.00 61 1007.1
20260504015953 44 54 2.0 2.0 0.00 0.00 0.00 62 1008.1
20260504015449 44 61 2.0 3.0 0.00 0.00 0.00 62 1007.8
20260504014945 44 54 2.0 2.0 0.00 0.00 0.00 62 1007.9
20260504014554 45 40 0.0 2.0 0.00 0.00 0.00 60 1007.1
20260504014441 44 51 2.0 3.0 0.00 0.00 0.00 62 1007.9
20260504013938 44 64 2.0 3.0 0.00 0.00 0.00 60 1007.8
20260504013437 45 54 2.0 3.0 0.00 0.00 0.00 60 1007.8
20260504012932 45 63 2.0 3.0 0.00 0.00 0.00 59 1007.7
20260504012431 45 61 2.0 2.0 0.00 0.00 0.00 59 1007.6
20260504011928 46 53 1.0 3.0 0.00 0.00 0.00 58 1007.8
20260504011555 48 5 0.0 1.0 0.00 0.00 0.00 55 1006.7
20260504011425 46 69 2.0 3.0 0.00 0.00 0.00 57 1007.7
20260504010920 46 64 2.0 3.0 0.00 0.00 0.00 57 1007.7
20260504010416 47 66 2.0 2.0 0.00 0.00 0.00 56 1007.6
20260504010054 49 5 0.0 1.0 0.00 0.00 0.00 52 1006.6
20260504005913 47 57 2.0 2.0 0.00 0.00 0.00 55 1007.7
20260504005409 48 51 2.0 3.0 0.00 0.00 0.00 54 1007.3
20260504004908 48 54 2.0 3.0 0.00 0.00 0.00 53 1007.5
20260504004405 48 68 2.0 3.0 0.00 0.00 0.00 52 1007.5
20260504003901 49 59 2.0 3.0 0.00 0.00 0.00 50 1007.4
20260504003358 49 64 2.0 3.0 0.00 0.00 0.00 49 1007.4
20260504002854 50 74 2.0 3.0 0.00 0.00 0.00 46 1007.3
20260504002351 51 63 2.0 2.0 0.00 0.00 0.00 44 1007.5
20260504001849 51 61 2.0 3.0 0.00 0.00 0.00 43 1007.1
20260504001555 53 345 0.0 1.0 0.00 0.00 0.00 40 1006.1
20260504001346 52 63 2.0 2.0 0.00 0.00 0.00 40 1007.0
20260504000843 52 52 0.0 3.0 0.00 0.00 0.00 39 1007.0
20260504000340 53 49 2.0 2.0 0.00 0.00 0.00 38 1007.0
20260504000055 54 340 0.0 2.0 0.00 0.00 0.00 37 1006.0
20260503235837 53 43 1.0 2.0 0.00 0.00 0.00 39 1006.9
20260503235335 53 1 1.0 4.0 0.00 0.00 0.00 40 1007.0
20260503234832 54 65 1.0 2.0 0.00 0.00 0.00 39 1006.9
20260503234555 55 234 0.0 1.0 0.00 0.00 0.00 36 1005.9
20260503234330 54 43 1.0 2.0 0.00 0.00 0.00 37 1006.9
20260503233828 54 55 2.0 2.0 0.00 0.00 0.00 38 1006.9
20260503233323 54 46 2.0 2.0 0.00 0.00 0.00 39 1006.7
20260503233055 55 234 0.0 2.0 0.00 0.00 0.00 36 1005.9
20260503232820 54 63 2.0 2.0 0.00 0.00 0.00 37 1006.7
20260503232318 54 53 2.0 2.0 0.00 0.00 0.00 41 1006.9
20260503231815 54 36 0.0 2.0 0.00 0.00 0.00 41 1006.8
20260503231555 55 234 1.0 3.0 0.00 0.00 0.00 38 1005.9
20260503231312 54 246 0.0 1.0 0.00 0.00 0.00 39 1006.9
20260503230808 54 37 0.0 1.0 0.00 0.00 0.00 37 1006.9
20260503230305 54 324 0.0 4.0 0.00 0.00 0.00 37 1006.9
20260503230055 55 152 0.0 3.0 0.00 0.00 0.00 39 1005.9
20260503225803 54 44 0.0 2.0 0.00 0.00 0.00 38 1006.8
20260503225258 55 47 2.0 2.0 0.00 0.00 0.00 38 1006.4
20260503224755 55 52 2.0 2.0 0.00 0.00 0.00 37 1006.8
20260503224555 55 237 0.0 2.0 0.00 0.00 0.00 38 1005.9
20260503224252 55 55 2.0 2.0 0.00 0.00 0.00 38 1006.8
20260503223750 55 58 0.0 2.0 0.00 0.00 0.00 38 1006.7
20260503223247 55 44 0.0 2.0 0.00 0.00 0.00 37 1007.0
20260503223055 56 161 1.0 3.0 0.00 0.00 0.00 37 1005.9
20260503222743 55 216 0.0 3.0 0.00 0.00 0.00 40 1006.9
20260503222241 55 61 2.0 2.0 0.00 0.00 0.00 37 1006.7
20260503221740 55 53 1.0 2.0 0.00 0.00 0.00 37 1006.8
20260503221555 55 239 0.0 2.0 0.00 0.00 0.00 36 1005.9
20260503221237 55 118 0.0 2.0 0.00 0.00 0.00 38 1007.0
20260503220733 56 51 1.0 2.0 0.00 0.00 0.00 38 1006.9
20260503220230 55 81 0.0 3.0 0.00 0.00 0.00 38 1006.8
20260503220055 56 222 1.0 3.0 0.00 0.00 0.00 36 1005.9
20260503215727 55 49 2.0 2.0 0.00 0.00 0.00 38 1006.7
20260503215224 55 93 0.0 2.0 0.00 0.00 0.00 39 1006.7
20260503214722 56 46 2.0 2.0 0.00 0.00 0.00 38 1006.8
20260503214555 56 175 1.0 6.0 0.00 0.00 0.00 37 1005.9
20260503214219 56 58 2.0 4.0 0.00 0.00 0.00 36 1006.9
20260503213717 56 55 2.0 3.0 0.00 0.00 0.00 35 1006.7
20260503213214 56 21 2.0 4.0 0.00 0.00 0.00 37 1006.8
20260503212710 56 65 0.0 3.0 0.00 0.00 0.00 37 1006.7
20260503212208 56 274 2.0 4.0 0.00 0.00 0.00 37 1006.7
20260503211706 56 93 1.0 4.0 0.00 0.00 0.00 36 1006.6
20260503211555 56 329 1.0 3.0 0.00 0.00 0.00 35 1005.7
20260503211201 56 97 2.0 4.0 0.00 0.00 0.00 34 1006.7
20260503210657 56 37 2.0 3.0 0.00 0.00 0.00 36 1006.6
20260503210155 57 71 3.0 7.0 0.00 0.00 0.00 34 1006.4
20260503210054 57 26 2.0 7.0 0.00 0.00 0.00 32 1005.6
20260503205650 57 67 2.0 3.0 0.00 0.00 0.00 33 1006.7
20260503205146 58 76 3.0 3.0 0.00 0.00 0.00 32 1006.6
20260503204643 58 235 0.0 3.0 0.00 0.00 0.00 34 1006.8
20260503204555 57 177 1.0 7.0 0.00 0.00 0.00 31 1005.7
20260503204141 58 138 2.0 4.0 0.00 0.00 0.00 34 1006.7
20260503203637 58 269 0.0 10.0 0.00 0.00 0.00 34 1006.7
20260503203135 58 118 1.0 3.0 0.00 0.00 0.00 36 1006.6
20260503203055 57 220 1.0 3.0 0.00 0.00 0.00 35 1005.8
20260503202632 57 89 0.0 4.0 0.00 0.00 0.00 33 1006.8
20260503202131 57 297 1.0 2.0 0.00 0.00 0.00 33 1006.7
20260503201628 56 71 2.0 4.0 0.00 0.00 0.00 33 1006.7
20260503201555 57 105 1.0 6.0 0.00 0.00 0.00 30 1005.9
20260503201125 57 67 1.0 2.0 0.00 0.00 0.00 34 1006.9
20260503200621 58 100 2.0 4.0 0.00 0.00 0.00 30 1006.8
20260503200118 58 88 2.0 8.0 0.00 0.00 0.00 34 1006.9
20260503200054 58 239 2.0 6.0 0.00 0.00 0.00 32 1005.8
20260503195615 58 66 2.0 3.0 0.00 0.00 0.00 34 1007.1
20260503195112 57 79 1.0 6.0 0.00 0.00 0.00 32 1007.0
20260503194610 57 125 0.0 3.0 0.00 0.00 0.00 29 1007.0
20260503194554 57 169 1.0 5.0 0.00 0.00 0.00 28 1006.0
20260503194110 58 82 5.0 5.0 0.00 0.00 0.00 32 1007.1
20260503193607 59 333 0.0 4.0 0.00 0.00 0.00 30 1007.2
20260503193102 58 296 0.0 3.0 0.00 0.00 0.00 34 1007.2
20260503193055 58 210 1.0 7.0 0.00 0.00 0.00 29 1006.2
20260503192558 59 223 3.0 4.0 0.00 0.00 0.00 33 1007.4
20260503192054 60 255 3.0 3.0 0.00 0.00 0.00 30 1007.3
20260503191555 59 85 1.0 5.0 0.00 0.00 0.00 27 1006.4
20260503191551 60 70 2.0 2.0 0.00 0.00 0.00 31 1007.3
20260503191048 60 234 0.0 5.0 0.00 0.00 0.00 29 1007.6
20260503190545 60 260 2.0 3.0 0.00 0.00 0.00 31 1007.4
20260503190056 59 218 1.0 5.0 0.00 0.00 0.00 35 1006.6
20260503190042 60 82 2.0 3.0 0.00 0.00 0.00 32 1007.6
20260503185538 60 252 3.0 4.0 0.00 0.00 0.00 31 1007.6
20260503185038 60 255 0.0 4.0 0.00 0.00 0.00 31 1007.7
20260503184555 58 243 1.0 6.0 0.00 0.00 0.00 34 1006.9
20260503184534 60 284 2.0 4.0 0.00 0.00 0.00 33 1008.0
20260503184031 59 70 2.0 6.0 0.00 0.00 0.00 31 1008.0
20260503183528 58 251 2.0 4.0 0.00 0.00 0.00 36 1008.1
20260503183055 57 213 3.0 10.0 0.00 0.00 0.00 35 1007.1
20260503183025 58 194 1.0 13.0 0.00 0.00 0.00 33 1008.0
20260503182523 59 282 2.0 3.0 0.00 0.00 0.00 33 1008.2
20260503182021 57 20 2.0 3.0 0.00 0.00 0.00 40 1008.0
20260503181554 56 192 1.0 3.0 0.00 0.00 0.00 32 1007.3
20260503181518 56 33 3.0 5.0 0.00 0.00 0.00 36 1008.2
20260503181014 57 218 1.0 5.0 0.00 0.00 0.00 33 1008.4
20260503180512 58 70 4.0 4.0 0.00 0.00 0.00 32 1008.3
20260503180055 55 262 1.0 6.0 0.00 0.00 0.00 41 1007.5
20260503180009 56 245 1.0 3.0 0.00 0.00 0.00 42 1008.4
20260503175506 55 9 1.0 5.0 0.00 0.00 0.00 41 1008.6
20260503175003 56 56 4.0 5.0 0.00 0.00 0.00 33 1008.7
20260503174555 54 280 2.0 5.0 0.00 0.00 0.00 32 1007.8
20260503174500 55 280 1.0 8.0 0.00 0.00 0.00 38 1008.7
20260503173955 54 237 0.0 4.0 0.00 0.00 0.00 36 1008.9
20260503173451 53 73 3.0 5.0 0.00 0.00 0.00 35 1009.0
20260503173055 54 84 2.0 5.0 0.00 0.00 0.00 34 1008.0
20260503172948 54 128 2.0 7.0 0.00 0.00 0.00 33 1008.8
20260503172446 55 263 1.0 4.0 0.00 0.00 0.00 35 1008.9
20260503171942 54 57 3.0 4.0 0.00 0.00 0.00 36 1009.1
20260503171554 53 353 1.0 5.0 0.00 0.00 0.00 35 1008.3
20260503171439 54 111 4.0 4.0 0.00 0.00 0.00 35 1009.0
20260503170937 54 64 0.0 5.0 0.00 0.00 0.00 35 1009.3
20260503170432 53 44 0.0 4.0 0.00 0.00 0.00 37 1009.2
20260503150825 51 69 1.0 4.0 0.00 0.00 0.00 38 1009.8
20260503150321 50 60 0.0 4.0 0.00 0.00 0.00 37 1010.0
20260503140245 45 60 2.0 2.0 0.00 0.00 0.00 53 1010.1
20260503131215 42 78 2.0 3.0 0.00 0.00 0.00 53 1010.5
20260503130713 43 71 3.0 4.0 0.00 0.00 0.00 53 1010.1
20260503130210 45 73 0.0 2.0 0.00 0.00 0.00 50 1010.5
20260503120135 43 77 0.0 3.0 0.00 0.00 0.00 59 1010.1
20260503110603 37 43 1.0 2.0 0.00 0.00 0.00 71 1009.9
20260503090450 36 55 2.0 2.0 0.00 0.00 0.00 73 1009.0
20260503081416 36 63 2.0 2.0 0.00 0.00 0.00 71 1009.0
20260503080913 36 59 2.0 2.0 0.00 0.00 0.00 71 1009.0
20260503080410 36 37 2.0 2.0 0.00 0.00 0.00 69 1009.0
20260503072846 37 57 1.0 2.0 0.00 0.00 0.00 68 1009.0
20260503072343 38 64 2.0 3.0 0.00 0.00 0.00 67 1008.8